Date,TemperatureHighF,TemperatureAvgF,TemperatureLowF,DewpointHighF,DewpointAvgF,DewpointLowF,HumidityHigh,HumidityAvg,HumidityLow,PressureMaxIn,PressureMinIn,WindSpeedMaxMPH,WindSpeedAvgMPH,GustSpeedMaxMPH,PrecipitationSumIn
2013-11-25,46,43,41,38,33,26,85,70,45,30.45,30.32,9,6,21,0.00
2013-11-26,66,60,41,65,58,37,97,93,85,30.32,29.65,27,16,32,0.53
2013-11-27,64,62,52,64,61,51,98,97,95,29.63,29.49,17,12,28,0.38
2013-12-2,60,54,48,53,49,46,92,84,72,29.94,29.82,8,4,11,0.00
2013-12-3,59,53,45,57,48,42,93,86,74,30.03,29.89,11,3,12,0.00
2013-12-4,64,61,58,62,59,56,97,95,90,30.13,30.00,11,3,12,0.05
2013-12-5,65,60,56,64,60,55,98,97,95,30.20,30.11,12,2,17,0.00
2013-12-6,65,62,60,64,62,60,99,98,97,30.19,30.09,18,6,21,0.00
2013-12-7,63,54,44,63,53,43,99,97,95,30.40,30.11,19,8,29,0.06
2013-12-8,44,42,41,43,41,40,97,95,93,30.39,30.28,13,9,23,0.03
2013-12-9,58,50,41,58,50,41,99,98,97,30.28,30.09,10,4,13,0.00
2013-12-10,66,56,42,64,54,40,99,96,83,30.34,29.93,22,8,31,0.10
2013-12-11,52,43,33,40,34,23,95,73,41,30.50,30.30,8,4,12,0.00
2013-12-12,50,42,34,36,30,22,85,64,35,30.41,30.28,18,7,24,0.01
2013-12-13,50,41,32,37,30,18,87,66,32,30.45,30.31,10,4,11,0.00
2013-12-14,64,56,45,63,51,32,97,83,57,30.31,29.80,26,11,31,0.38
2013-12-15,63,56,44,63,52,39,98,87,71,30.12,29.74,18,8,26,0.08
2013-12-16,56,48,37,49,41,34,92,78,53,30.23,30.12,13,7,15,0.00
2013-12-17,58,54,46,52,45,37,83,73,54,30.21,30.04,23,13,29,0.00
2013-12-18,57,48,39,40,33,25,83,58,36,30.34,30.05,18,7,27,0.00
2013-12-19,57,48,37,53,41,32,93,77,49,30.40,30.29,10,3,12,0.00
2013-12-20,65,58,52,60,55,49,94,91,83,30.29,30.18,9,3,10,0.00
2013-12-21,65,61,58,63,60,55,97,95,92,30.21,30.13,14,4,15,0.00
2013-12-22,65,62,61,64,62,60,98,97,95,30.17,30.11,18,9,19,0.00
2013-12-23,65,62,59,64,62,58,98,98,97,30.16,30.05,20,10,25,0.19
2013-12-24,59,49,37,58,44,32,98,84,66,30.41,30.06,15,9,23,0.10
2013-12-25,44,38,30,32,27,22,82,67,52,30.51,30.35,15,9,21,0.00
2013-12-26,47,42,35,42,38,31,88,84,76,30.35,30.24,14,9,20,0.00
2013-12-27,54,45,38,38,35,31,84,68,43,30.43,30.32,13,7,18,0.00
2013-12-28,59,48,34,54,40,30,88,73,47,30.42,30.11,9,5,13,0.00
2013-12-29,65,59,52,63,57,49,97,92,82,30.11,29.77,34,13,39,0.30
2013-12-30,56,50,46,49,48,45,96,91,74,30.16,29.96,9,4,12,0.00
2013-12-31,55,50,44,48,43,35,92,77,49,30.39,30.13,13,6,19,0.00
2014-1-1,53,46,41,45,40,34,92,78,60,30.42,30.15,9,5,13,0.02
2014-1-2,57,51,46,56,49,44,97,95,87,30.15,29.61,21,6,30,0.65